Location: Peterborough
(44.3091°N, 78.3197°W)
Time: 18:30:20
(UTC-04:00)

Vanguard 3 - Pass Details

Date: 22 March 2023
Orbit: 507 x 3246 km, 33.4° (Epoch: 05 June)

Event Time Altitude Azimuth Distance (km) Brightness Sun altitude
Exits shadow 06:13:47 10° 240° (WSW) 6,218 11.0 -11.4°
Reaches altitude 10° 06:13:59 10° 240° (WSW) 6,178 11.0 -11.3°
Maximum altitude 06:32:36 54° 171° (S) 3,279 10.2 -8.1°
Drops below altitude 10° 06:45:57 10° 100° (E) 4,574 12.5 -5.7°
Sets 06:48:59 0° 96° (E) 5,258 13.4 -5.1°
